SENTINEL-3B

Last updated on Fri Apr 25 2025 00:02:26 GMT+0000 (Coordinated Universal Time)

1 43437U 18039A 25114.16348325 .00000259 00000+0 12506-3 0 9999 2 43437 98.6325 182.6172 0001619 86.8439 273.2927 14.26736728364379
UTC large
Height (km)
Speed (km/s)
/
Latitude / Longitude
Inclination (degrees)
Orbital Period (minutes)
Azimuth
Elevation
Range (km)
Doppler Factor

Next 0 passes for location: London (51.5072 / 0.1276)

Sorry there are no passes over London.